OneWeb SL0695

operational
NORAD ID: 61602 Int'l Des: 2024-188 Owner: ONEWEBE Country: UK Constellation: oneweb
LEOCIRCULARPOLARONEWEB_TYPE

Über OneWeb SL0695

Beschreibung wird geladen...

Live-Position

3D-Globus wird geladen...

Nächste Überflüge

Höhenverlauf

Altitude vs Time

uPlot chart will show altitude changes over time

Zweizeiliger Elementsatz

1 61602U 24188J 26033.45236598 -.00000439 00000-0 -12759-2 0 9998
2 61602 87.8813 47.8918 0002157 104.8327 255.3039 13.11415123 66808
Epoch: 2. Feb. 2026 • Age: 19 hours

Aktueller Status

Höhe 1229.8 km
Geschwindigkeit 7.25 km/s
Subsatellitenpunkt 82.34°N, 153.6°W
Startdatum 20. Okt. 2024
Alter 1.2 years
Typ internet

Technische Details

Klassifizierung Payload
Masse 148.00 kg
Trockenmasse 140.00 kg
Gesamtmasse 148.00 kg
Länge 1.30 m
Durchmesser 1.00 m
Spannweite 5.00 m
Form Trapezoid+2 pan
Hersteller ONEWUS
Bus-Typ ARROW
Phasenstatus In Orbit
Besitzer/Staat ONEWEBE/UK

Große Konstellationen

Loading constellations...